RH
100 100 100 100 98 100 100 93 94 89 87 87 88 89 91 89 86 87 87 91 92 91 88 87 86 86 85 81 78 70 66 62 60 59 49 45 45 57 77 88 91 94 98
100 100 100 100 100 99 96 92 98 99 96 90 90 89 87 86 86 89 92 94 87 90 88 92 88 87 90 85 82 79 69 67 63 61 57 51 48 48 56 76 86 92 95
100 100 100 100 100 100 98 98 99 100 98 92 93 87 84 87 87 86 85 88 90 89 93 92 90 94 92 91 87 86 81 76 68 66 62 56 54 53 56 61 70 82 91
100 100 100 99 100 100 100 98 99 100 100 100 97 96 96 94 93 92 88 87 89 91 94 94 97 96 93 92 88 86 84 84 79 76 73 65 63 62 62 64 64 65 70
100 100 100 99 99 100 100 100 98 96 96 98 99 100 100 100 97 96 91 88 87 91 95 95 96 97 97 91 89 84 83 86 86 84 81 76 71 70 66 59 64 66 69
100 100 100 99 99 100 100 100 100 99 89 98 99 99 99 98 95 95 95 94 95 99 98 98 99 96 97 96 92 85 82 82 84 87 84 80 77 69 65 63 64 75 86
98 98 100 100 98 100 99 100 100 100 100 99 98 99 99 99 100 98 99 100 99 99 99 99 99 95 98 100 94 95 90 84 82 78 82 79 77 68 66 67 69 70 70
98 99 99 100 100 100 100 100 100 100 100 100 100 100 100 99 100 100 100 100 100 100 100 99 100 99 98 97 95 97 89 87 87 89 86 81 80 78 75 71 68 71 78
97 98 98 98 99 100 99 99 100 100 100 100 100 100 100 100 99 100 100 100 100 100 100 100 100 100 97 94 94 86 90 89 89 91 91 91 89 87 84 82 87 97 100
97 97 98 97 98 98 99 99 100 100 100 100 100 100 100 100 100 100 100 100 100 100 100 100 100 96 97 100 97 91 89 82 89 95 97 98 99 100 100 100 100 99 99
97 97 97 97 98 98 98 98 100 99 99 100 100 100 100 99 100 100 100 100 100 100 100 100 99 99 99 100 100 100 100 99 100 100 100 100 100 100 100 100 100 100 100
96 97 97 97 97 97 97 98 98 98 98 99 99 100 100 100 100 100 100 100 100 100 100 100 100 100 100 100 100 100 100 99 100 100 100 100 100 100 100 100 100 100 100
96 96 97 97 96 96 97 98 98 98 99 99 99 100 99 100 100 100 100 100 100 99 100 99 99 100 100 100 100 100 99 99 99 99 99 100 100 100 100 100 100 100 100
97 96 97 97 96 96 96 98 98 99 99 99 99 99 99 99 98 99 100 100 100 100 100 100 99 100 100 100 100 100 100 100 100 100 100 100 100 100 100 100 100 100 99
96 98 97 98 96 97 97 97 97 98 98 98 98 98 99 99 99 98 99 100 100 100 100 100 100 100 100 100 100 100 100 98 100 100 100 100 100 100 100 100 97 100 98
95 100 98 97 94 98 98 93 96 96 96 96 97 98 97 100 100 99 98 98 99 99 99 100 100 100 100 100 99 100 100 98 96 98 100 100 99 100 100 100 100 99 98
99 100 99 100 100 100 99 100 98 77 90 99 100 99 99 99 98 99 99 99 100 99 100 100 100 100 100 100 100 100 100 100 99 95 94 96 97 98 100 98 98 98 98
90 100 99 96 100 100 100 99 100 98 97 95 92 100 100 98 99 99 98 94 98 99 100 100 100 100 99 99 99 99 99 100 100 100 98 96 96 97 98 99 98 97 97
89 100 99 92 99 100 99 96 100 100 100 100 99 96 100 100 98 98 98 99 100 100 99 100 100 100 100 100 100 100 99 100 99 99 100 99 99 100 100 98 98 97 97
86 100 100 93 94 100 100 100 100 100 100 99 99 99 99 99 100 100 100 99 100 100 100 99 99 100 100 100 100 100 100 100 100 100 100 99 99 100 100 98 97 97 97
88 90 100 91 95 100 99 100 100 100 99 99 100 99 96 98 100 100 100 100 100 100 100 100 96 94 99 99 100 100 100 100 100 100 99 98 98 98 97 98 97 97 96
89 92 93 94 95 100 100 100 100 100 100 100 98 100 100 99 100 100 100 100 100 100 100 100 94 92 94 97 99 99 100 100 100 100 99 99 99 98 98 97 97 97 96
90 92 91 92 96 98 91 98 96 100 100 100 100 100 100 100 100 100 100 100 100 99 99 97 96 93 94 98 98 98 99 99 99 100 100 98 98 97 97 97 97 97 97
90 94 95 95 100 96 99 95 95 97 100 98 100 100 100 98 98 97 98 98 97 96 98 99 98 97 94 93 93 95 96 97 100 98 99 99 98 97 96 96 96 96 96
92 95 98 99 99 100 97 97 97 97 96 99 99 99 99 99 97 96 95 95 95 95 94 94 94 94 94 94 93 94 95 97 96 98 100 100 99 98 96 96 96 96 96
93 95 96 98 99 100 100 99 98 98 98 99 98 97 100 100 97 96 96 95 93 93 94 94 94 94 93 92 92 92 93 96 100 99 98 98 98 97 96 96 96 96 96
Wind_Speed
13 9 3 10 21 23 24 24 24 24 25 25 26 28 31 32 34 34 33 30 33 31 34 36 38 36 38 38 37 32 29 26 18 16 16 16 15 18 22 28 32 31 33
16 11 7 3 13 18 21 24 23 24 24 24 23 25 27 29 31 34 35 31 35 35 35 33 37 36 36 37 38 36 32 30 23 20 19 21 18 16 17 20 25 29 29
19 14 11 8 7 10 20 21 22 22 22 22 24 25 25 27 29 31 32 32 33 36 33 35 35 31 33 33 33 31 35 32 29 20 19 20 18 17 16 17 20 24 26
21 18 15 13 6 4 9 15 16 19 21 21 23 24 26 27 28 30 31 31 30 32 31 33 33 32 33 32 31 30 32 27 30 25 20 20 18 17 17 16 17 20 23
21 23 22 15 10 3 5 12 14 15 16 18 19 20 21 23 25 27 28 28 30 31 30 31 33 30 28 28 25 28 28 25 23 20 16 17 19 18 18 18 20 20 20
24 24 24 20 14 10 4 6 14 15 16 15 15 16 16 19 20 20 21 23 25 28 27 30 29 26 26 24 22 20 22 25 24 18 17 16 25 30 26 21 20 15 6
25 26 25 23 22 17 12 5 7 14 15 16 14 14 14 14 15 15 16 19 20 22 25 26 26 25 25 23 21 19 19 18 20 22 20 26 18 29 26 24 23 21 18
27 28 28 27 27 24 18 14 8 6 14 14 14 14 13 14 15 14 15 18 18 21 20 24 23 24 22 20 20 21 20 21 23 25 24 23 21 22 21 24 26 23 19
27 28 29 29 29 28 26 20 15 12 12 13 12 13 12 11 13 15 15 17 17 15 15 16 17 19 20 19 19 20 21 23 23 22 22 22 20 20 21 20 19 19 12
27 27 28 29 29 30 28 25 18 19 18 17 20 18 15 11 10 14 15 16 15 14 13 15 15 16 18 19 20 18 19 22 21 19 19 19 20 20 21 21 20 21 10
27 27 29 30 29 30 29 29 25 24 20 20 22 23 25 24 15 11 11 12 12 12 10 12 12 13 16 18 20 21 21 20 20 17 17 14 14 15 16 17 16 17 17
29 26 29 29 30 30 30 30 29 27 25 23 23 21 23 22 23 20 13 12 11 11 9 8 8 9 10 11 11 10 9 9 9 11 12 12 13 14 16 14 12 13 13
29 27 28 28 29 29 30 27 26 25 24 22 21 20 22 21 20 19 19 14 11 9 7 5 4 4 6 7 7 9 8 8 10 12 14 14 13 14 13 12 11 10 10
26 27 26 26 27 27 28 27 24 23 21 21 20 19 21 25 23 17 15 13 11 7 5 6 5 5 5 7 8 7 5 6 9 11 12 12 12 14 15 14 14 15 14
25 25 25 24 27 25 24 22 24 23 22 19 19 19 18 18 19 15 13 10 9 6 2 3 6 7 8 7 6 4 3 3 5 7 10 12 14 16 16 16 16 17 10
23 21 21 22 25 24 22 21 17 16 16 17 17 19 18 16 17 15 15 9 4 5 3 3 2 0 3 5 5 5 5 4 4 6 9 12 15 17 17 16 16 16 13
24 22 20 20 20 19 19 17 16 18 13 15 16 17 18 19 18 18 16 11 6 4 3 4 5 3 4 5 6 7 7 6 5 6 8 11 13 15 17 17 16 15 11
22 20 21 21 19 18 17 17 16 15 16 20 18 17 18 17 16 17 18 13 14 11 10 6 3 4 5 6 6 8 9 9 10 10 10 11 14 16 19 19 19 18 15
22 20 20 20 17 16 18 18 17 16 15 15 19 20 20 16 13 13 14 16 14 14 14 13 9 6 5 7 6 8 10 12 12 14 15 15 16 18 19 20 21 20 19
23 18 17 18 18 17 17 17 17 15 16 16 16 20 22 18 17 17 14 14 14 13 13 13 12 11 9 6 7 7 8 9 13 15 17 17 18 19 20 21 22 21 21
22 20 16 17 17 16 16 15 15 14 14 15 16 15 16 15 15 15 16 14 13 12 13 13 12 10 9 9 8 9 9 11 13 15 16 17 18 19 19 20 21 23 23
20 18 16 16 16 16 16 15 15 13 13 15 16 15 15 15 15 14 14 15 13 12 11 13 13 12 10 8 9 10 12 14 15 15 15 16 17 18 19 20 22 24 24
19 17 17 17 16 15 16 17 17 16 14 14 14 14 17 16 17 17 15 14 14 13 11 11 12 12 10 10 10 11 12 14 15 16 17 18 19 20 21 22 24 25 26
17 16 16 16 15 16 16 18 18 17 16 17 18 15 17 18 17 16 16 16 14 13 11 10 9 11 11 10 11 12 13 14 14 15 16 17 19 19 21 22 24 26 26
17 16 15 16 15 15 17 18 17 17 17 18 19 18 19 19 18 17 16 15 14 13 12 10 10 11 11 11 10 10 10 10 11 11 12 15 16 20 21 23 25 25 24
17 16 16 17 17 17 17 17 18 18 18 17 17 17 19 19 18 18 17 15 14 13 12 11 10 11 10 10 10 9 9 8 8 9 10 12 15 17 19 21 24 25 23
Wind_Direction
10 2 0 204 220 221 223 222 221 219 216 217 219 219 218 218 220 220 223 220 223 225 228 232 236 233 239 237 236 237 238 237 239 252 244 255 259 256 248 241 242 243 242
10 7 17 135 203 214 219 223 220 219 219 216 217 218 221 225 226 223 224 221 228 226 234 231 235 233 235 236 236 233 235 237 229 242 249 249 253 261 253 247 245 243 244
13 18 23 63 112 178 215 216 215 208 211 212 220 220 223 227 229 229 230 225 228 232 228 231 238 229 228 229 231 228 233 236 235 234 243 244 246 247 250 250 246 244 243
17 21 22 29 35 129 172 198 208 203 206 211 218 226 229 232 232 235 232 227 225 230 228 236 235 230 233 232 234 236 237 231 236 231 236 243 242 240 244 249 250 245 240
16 22 20 23 23 358 156 180 206 200 203 207 211 216 223 227 231 233 232 230 226 229 233 239 239 241 242 236 236 239 235 227 225 219 220 229 232 230 228 241 239 245 239
20 18 22 29 22 26 60 166 187 197 205 200 199 201 205 213 218 221 225 227 229 230 236 238 234 239 238 230 229 237 242 232 227 217 215 221 230 238 242 238 233 228 234
20 19 18 21 27 35 37 51 156 175 184 188 190 194 204 212 214 211 217 225 227 228 225 231 229 234 233 232 228 234 241 243 245 246 222 232 231 246 240 233 229 227 226
19 18 18 21 24 33 38 38 62 140 169 183 189 195 204 216 214 209 207 214 221 226 230 238 236 236 227 220 218 221 229 239 242 240 243 251 253 259 255 248 247 239 239
15 17 17 26 26 23 28 34 44 72 106 131 143 155 172 195 202 200 198 206 213 217 217 223 226 226 222 218 221 223 226 235 238 241 247 253 255 254 246 234 221 204 211
5 16 23 31 31 27 26 34 42 67 68 88 107 103 108 115 169 188 195 204 210 215 215 216 216 218 218 217 223 219 223 235 231 229 235 239 246 249 252 247 238 214 188
11 21 29 34 32 36 33 38 45 58 67 57 74 83 83 80 89 116 148 165 180 178 187 197 210 220 224 224 227 234 241 245 238 232 229 233 237 233 228 225 229 229 217
18 19 29 35 38 39 35 35 39 48 42 44 49 52 69 72 66 66 100 116 129 141 142 158 174 184 189 197 202 209 217 223 220 213 212 205 203 205 209 215 215 220 222
22 16 22 31 42 43 36 26 30 33 37 29 29 33 36 47 57 59 66 76 93 110 124 134 151 167 189 190 189 196 204 211 206 203 206 203 203 204 202 201 197 196 193
20 16 17 21 29 39 40 31 27 28 29 29 23 25 26 33 29 30 41 55 63 71 107 134 149 154 164 159 164 173 172 188 193 197 197 196 194 191 190 194 182 176 169
20 15 19 20 24 22 37 34 30 31 28 25 29 30 22 19 18 12 7 20 32 27 38 136 147 151 162 161 157 154 159 169 177 184 185 185 187 189 188 187 187 177 177
18 12 16 18 26 21 16 22 39 34 30 31 30 28 25 21 13 11 7 358 9 21 341 4 15 53 202 196 196 193 202 200 191 187 189 192 193 194 191 192 195 191 184
19 9 12 14 19 18 14 4 2 30 35 35 30 28 26 21 15 11 6 1 3 11 20 356 347 308 264 235 238 242 245 230 228 209 206 201 203 204 197 197 198 195 185
16 13 12 13 16 13 13 5 1 9 9 8 30 24 22 22 27 27 20 20 28 23 22 16 344 285 270 251 245 249 252 249 240 233 225 222 219 213 209 210 205 198 188
9 5 5 13 17 15 11 11 9 9 13 15 8 19 18 15 30 36 36 34 19 14 6 0 352 327 291 267 256 247 240 237 233 233 231 228 225 220 219 218 212 207 194
11 10 8 12 16 14 7 9 10 10 8 8 12 0 4 11 17 17 24 22 19 10 359 351 351 344 327 299 267 261 254 246 241 237 238 235 232 226 224 221 213 193 195
7 11 9 16 16 14 3 6 4 8 8 8 2 8 6 7 1 3 4 1 360 353 340 339 341 338 339 330 311 290 277 264 255 250 246 241 235 227 227 227 218 204 199
7 9 10 9 10 8 360 6 5 4 2 2 11 10 12 13 6 1 360 352 347 342 333 327 328 327 318 309 305 301 292 282 272 259 254 250 241 232 226 216 209 201 190
6 9 13 12 13 360 11 9 11 7 0 7 9 8 9 9 4 2 355 350 348 342 337 329 322 316 312 299 280 273 274 276 280 275 263 259 247 233 223 214 204 192 186
7 11 12 12 13 6 8 4 9 6 4 5 8 4 8 6 3 360 356 353 346 343 337 329 322 313 308 299 288 274 263 260 259 260 259 256 244 231 222 213 202 193 185
7 11 12 12 12 10 8 7 6 5 5 6 2 3 4 2 0 358 356 354 349 341 338 333 324 318 314 306 292 281 271 266 262 258 254 248 240 227 216 207 196 187 176
3 7 9 8 9 10 5 2 1 3 4 358 359 2 360 355 357 355 355 351 349 347 343 339 330 322 315 308 302 294 285 278 267 265 253 238 227 215 204 195 187 175 170